Home   Weather   Dubai   Past weeks
Flag for United Arab Emirates

Past Weather in Dubai, Dubai, United Arab Emirates — Yesterday and Last 2 Weeks

Now
99 °F

Clear.


Feels Like: 115 °F
Forecast: 96 / 92 °F
Wind: 12 mph from Northwest

Location: Dubai International Airport

Current Time: Jul 17, 2019 at 5:25:40 pm

Latest Report: Jul 17, 2019 at 5:00 pm


Visibility: 6 mi

Pressure: 29.39 "Hg

Humidity: 50%

Dew Point: 77 °F

Location of DubaiLocation

Past Weather in Dubai — Graph

°F

Dubai Temperature Yesterday

Maximum temperature yesterday: 102 °F (at 12:00 pm)
Minimum temperature yesterday: 90 °F (at 3:00 am)
Average temperature yesterday: 95 °F

High & Low Weather Summary for the Past Weeks

 TemperatureHumidityPressure
High111 °F (Jul 4, 12:00 pm)84% (Jul 6, 4:00 am)29.50 "Hg (Jul 6, 4:00 am)
Low88 °F (Jul 11, 5:00 am)13% (Jul 11, 4:00 pm)29.27 "Hg (Jul 6, 3:00 pm)
Average97 °F53%29.39 "Hg
* Reported Jul 2 4:00 pm — Jul 17 4:00 pm, Dubai. Weather by CustomWeather, © 2019

Note: Actual official high and low records may vary slightly from our data, if they occured in-between our weather recording intervals... More about our weather records

Advertising

Dubai Weather History for the Previous 24 Hours

Scroll right to see more
 ConditionsComfort  
Time TempWeatherWind HumidityBarometerVisibility
4:00 pm
Wed, Jul 17
99 °FSunny.14 mph50%29.39 "Hg10 mi
3:00 pm100 °FClear.14 mph50%29.42 "Hg5 mi
2:00 pm106 °FPassing clouds.12 mph38%29.42 "HgN/A
1:00 pm106 °FPassing clouds.6 mph23%29.42 "HgN/A
12:00 pm106 °FSunny.3 mph18%29.45 "Hg10 mi
11:00 am102 °FPassing clouds.7 mph26%29.45 "HgN/A
10:00 am99 °FPassing clouds.6 mph37%29.45 "HgN/A
9:00 am95 °FPassing clouds.6 mph50%29.47 "HgN/A
8:00 am91 °FSunny.5 mph59%29.45 "Hg10 mi
7:00 am90 °FPassing clouds.5 mph63%29.45 "HgN/A
6:00 am90 °FSunny.6 mph71%29.42 "Hg10 mi
5:00 am90 °FPassing clouds.5 mph71%29.42 "HgN/A
4:00 am90 °FPassing clouds.6 mph71%29.39 "HgN/A
3:00 am90 °FPassing clouds.9 mph71%29.39 "HgN/A
2:00 am91 °FPassing clouds.5 mph71%29.42 "HgN/A
1:00 am91 °FPassing clouds.5 mph67%29.42 "HgN/A
12:00 am93 °FPassing clouds.7 mph63%29.42 "HgN/A
11:00 pm
Tue, Jul 16
93 °FClear.8 mph63%29.42 "Hg10 mi
10:00 pm95 °FPassing clouds.6 mph63%29.42 "HgN/A
9:00 pm95 °FClear.8 mph63%29.39 "Hg10 mi
8:00 pm95 °FPassing clouds.9 mph63%29.39 "HgN/A
7:00 pm97 °FSunny.10 mph60%29.36 "Hg10 mi
6:00 pm99 °FPassing clouds.10 mph53%29.36 "HgN/A
5:00 pm99 °FSunny.10 mph50%29.36 "Hg10 mi
Weather by CustomWeather, © 2019

See weather overview